TimeWET,TemperatureF,Dew PointF,Humidity,Sea Level PressureIn,VisibilityMPH,Wind Direction,Wind SpeedMPH,Gust SpeedMPH,PrecipitationIn,Events,Conditions,WindDirDegrees,DateUTC
12:00 AM,60,56,81,29.95,,West,1.2,,,,,280,2012-11-17 00:00:00
3:00 AM,61,56,77,29.88,,South,3.5,,,,,180,2012-11-17 03:00:00
6:00 AM,57,52,79,29.83,6,SSW,4.6,,,,Partly Cloudy,200,2012-11-17 06:00:00
6:00 AM,57.2,51.8,82,29.83,6.2,SSW,4.6,-,N/A,,Scattered Clouds,200,2012-11-17 06:00:00
7:00 AM,57.2,51.8,82,29.80,6.2,SW,2.3,-,N/A,,Scattered Clouds,220,2012-11-17 07:00:00
8:00 AM,60.8,51.8,72,29.77,6.2,WSW,4.6,-,N/A,,Mostly Cloudy,240,2012-11-17 08:00:00
9:00 AM,62,55,72,29.82,6,East,2.3,,,,Partly Cloudy,80,2012-11-17 09:00:00
9:00 AM,62.6,55.4,77,29.80,6.2,East,2.3,-,N/A,,Scattered Clouds,80,2012-11-17 09:00:00
10:00 AM,66.2,55.4,68,29.83,6.2,WNW,9.2,-,N/A,,Scattered Clouds,300,2012-11-17 10:00:00
11:00 AM,71.6,55.4,57,29.80,6.2,NNE,2.3,-,N/A,,Scattered Clouds,30,2012-11-17 11:00:00
12:00 PM,73,59,52,,9,NNW,4.6,,,,Partly Cloudy,340,2012-11-17 12:00:00
12:00 PM,73.4,59.0,61,29.77,6.2,NNW,2.3,-,N/A,,Partly Cloudy,340,2012-11-17 12:00:00
1:00 PM,71.6,57.2,60,29.74,6.2,ENE,4.6,-,N/A,,Partly Cloudy,60,2012-11-17 13:00:00
2:00 PM,77.0,59.0,54,29.71,6.2,WSW,9.2,-,N/A,,Scattered Clouds,240,2012-11-17 14:00:00
3:00 PM,70,58,56,29.74,9,North,9.2,,,,Partly Cloudy,0,2012-11-17 15:00:00
3:00 PM,69.8,57.2,64,29.71,6.2,North,9.2,-,N/A,,Scattered Clouds,360,2012-11-17 15:00:00
4:00 PM,68.0,57.2,68,30.04,6.2,ENE,4.6,-,N/A,,Mostly Cloudy,60,2012-11-17 16:00:00
5:00 PM,66.2,59.0,78,29.77,3.7,WNW,4.6,-,N/A,Rain,Rain,300,2012-11-17 17:00:00
6:00 PM,63,58,80,29.77,4,SE,4.6,,,Rain,Light Rain,140,2012-11-17 18:00:00
6:00 PM,62.6,59.0,88,29.77,3.7,SE,4.6,-,N/A,,Mostly Cloudy,140,2012-11-17 18:00:00
7:00 PM,60.8,55.4,82,29.74,5.0,SW,4.6,-,N/A,,Mostly Cloudy,220,2012-11-17 19:00:00
8:00 PM,60.8,55.4,82,29.74,5.0,South,2.3,-,N/A,,Mostly Cloudy,180,2012-11-17 20:00:00
9:00 PM,59,54,78,29.75,5,SW,9.2,,,,Partly Cloudy,220,2012-11-17 21:00:00
9:00 PM,59.0,53.6,82,29.74,5.0,SW,9.2,-,N/A,,Mostly Cloudy,220,2012-11-17 21:00:00